RH
30 29 27 27 26 26 26 25 25 25 24 24 24 24 24 24 25 24 25 24 24 23 22 21 20 19 16 14 14 12 12 12 13 15 16 18 18 19 20 21 22 22 21 20 20 20 21 23 21 17 13 11 9 7 13 21 19 16 15 11 11 12 11 15 20 21 20 21 20 19 17 17 17 18 31 38 34 33 29 18 11 13 12 19 19 8 8 9
32 31 29 27 26 26 27 26 26 26 25 25 25 25 25 25 25 24 25 24 24 24 23 23 21 21 19 16 15 13 12 11 12 13 15 17 19 19 19 21 22 22 22 20 20 20 20 23 23 20 14 11 10 9 8 12 14 11 11 12 12 12 11 13 16 16 18 19 17 14 11 12 13 15 23 28 31 33 29 21 13 12 12 12 9 6 8 8
29 31 31 29 26 25 26 27 27 26 26 26 25 25 25 25 25 24 24 24 24 24 24 23 23 22 21 19 17 15 13 12 12 12 14 15 18 20 19 19 21 23 23 22 21 20 21 22 24 23 17 13 11 10 8 9 9 9 15 15 10 10 11 12 12 13 16 19 19 16 13 11 12 17 22 24 24 25 25 20 14 13 12 11 9 8 10 11
24 27 30 30 29 26 25 26 27 27 26 26 26 26 25 25 24 24 24 24 23 24 24 24 23 23 22 21 19 17 15 13 12 12 13 14 15 18 20 19 20 22 23 23 22 21 21 21 24 24 20 16 12 11 9 9 8 10 18 16 9 10 10 11 12 12 12 15 18 16 15 14 15 18 19 21 22 20 19 18 15 14 13 11 11 10 10 11
22 23 25 27 29 28 26 24 25 26 27 26 26 26 26 25 24 24 23 23 23 23 24 24 24 23 22 22 21 19 17 15 14 12 12 13 14 16 19 20 20 21 24 24 23 22 21 21 23 25 24 18 12 12 10 9 8 9 13 12 10 11 10 10 11 12 13 15 15 14 16 18 18 20 23 23 23 23 20 20 17 14 15 12 11 11 9 10
23 22 22 22 24 26 26 25 24 25 26 26 26 26 26 26 25 24 23 23 23 22 22 23 23 23 23 22 21 20 18 17 15 14 13 13 14 14 16 19 21 20 23 25 24 23 22 21 22 24 26 21 13 11 10 9 9 10 10 9 10 10 11 11 11 12 14 15 14 15 16 22 30 25 27 33 29 28 24 22 22 18 16 15 13 11 11 12
23 23 23 22 21 22 23 23 23 23 25 26 26 25 26 26 26 25 24 23 23 22 22 22 22 23 23 22 22 21 19 18 17 15 14 13 13 14 15 17 20 21 21 24 25 24 23 21 21 23 26 25 17 11 11 10 9 11 10 10 10 9 11 11 12 13 14 17 14 16 16 29 52 36 23 30 24 24 25 22 22 20 17 16 15 14 15 15
20 22 23 23 22 21 21 21 21 22 23 25 25 25 25 26 26 26 25 24 23 23 22 22 22 22 23 23 22 21 20 19 18 17 16 14 13 13 14 15 18 21 21 23 25 25 24 22 21 22 25 27 22 12 10 11 10 10 9 10 10 9 11 10 12 12 14 19 14 20 24 29 45 30 14 20 18 18 20 20 20 18 19 16 17 16 17 16
18 19 21 23 24 23 22 21 20 20 21 23 24 24 24 25 26 26 26 25 24 23 23 22 22 22 23 23 22 22 21 20 19 19 18 16 15 14 14 14 15 19 22 22 24 26 24 24 22 21 24 26 26 17 10 12 11 10 10 10 10 10 12 11 15 14 13 17 14 24 37 36 39 36 25 15 10 14 13 15 17 16 18 16 17 17 14 15
18 18 18 19 21 23 24 23 21 20 20 20 22 22 23 25 25 26 26 25 24 24 24 23 23 23 23 23 23 22 21 21 20 19 19 18 16 15 14 14 14 17 21 22 22 26 26 24 23 22 23 25 27 22 13 11 11 11 10 9 10 10 12 14 15 15 13 15 15 20 31 36 38 50 58 35 12 13 12 12 15 14 15 14 14 16 14 14
19 18 17 17 17 19 22 24 24 22 21 20 20 20 21 24 25 25 25 25 25 24 24 24 23 23 23 23 23 23 22 22 21 20 20 20 18 17 15 14 14 14 19 22 22 24 27 26 25 23 22 24 27 27 19 12 11 11 11 10 11 10 12 16 19 24 24 25 28 21 21 22 20 36 53 38 17 13 14 14 15 14 13 13 13 15 16 15
22 19 18 17 17 17 18 20 23 24 24 22 20 20 20 21 23 25 25 25 25 25 24 24 24 24 23 23 23 23 23 22 22 22 21 21 20 18 17 15 14 14 15 20 22 23 26 26 25 24 23 23 24 28 25 17 13 11 12 11 11 11 11 15 28 38 37 45 53 38 28 24 26 45 36 15 15 14 14 17 17 15 13 14 14 14 16 16
23 22 20 18 17 17 17 17 18 21 24 25 23 21 20 20 20 22 23 24 25 25 25 24 24 24 24 24 23 23 23 23 23 23 22 22 21 20 18 16 14 14 14 17 21 22 25 26 27 25 23 23 23 26 27 22 16 11 12 12 11 12 11 14 24 32 27 36 52 44 39 39 41 54 32 8 17 14 12 17 15 15 14 14 14 14 16 15
20 22 22 21 18 17 17 17 17 17 20 23 25 24 22 21 20 20 20 21 24 24 25 25 24 24 24 24 23 23 23 23 23 23 23 23 23 21 20 18 15 14 14 15 19 22 23 25 27 27 24 24 23 24 26 25 20 13 12 12 13 13 12 16 19 25 22 22 43 46 37 38 38 39 24 10 15 13 14 16 13 15 15 14 14 13 14 14
18 19 21 22 21 19 17 17 17 16 17 18 22 25 25 24 21 20 19 19 21 23 24 25 25 24 24 24 23 23 23 22 23 23 24 23 23 23 21 20 17 15 15 14 16 21 23 23 26 27 26 25 24 24 25 26 24 18 14 11 13 14 13 15 13 19 24 18 38 50 33 27 30 30 22 14 15 13 13 13 14 18 15 13 13 12 13 13
19 18 18 20 21 21 20 18 17 18 17 17 17 20 24 26 25 23 21 20 19 20 22 24 24 24 24 25 24 23 23 22 23 22 23 24 23 24 23 22 19 16 15 14 14 18 22 23 24 27 27 26 26 25 25 25 26 22 19 14 12 14 14 15 12 12 19 21 29 34 29 26 25 22 16 18 21 14 13 15 17 22 19 13 12 12 13 13
20 19 18 18 19 20 21 21 19 18 18 18 17 17 19 23 26 26 24 22 21 19 20 22 23 24 23 24 24 24 23 22 23 22 22 23 23 24 23 23 21 18 15 14 14 15 20 23 23 25 27 28 27 27 26 25 26 26 25 20 13 13 13 14 15 11 12 25 26 18 19 24 28 25 14 18 22 15 21 25 22 28 30 21 14 15 18 15
22 21 19 18 18 18 20 21 22 21 19 18 18 18 18 19 22 25 26 25 24 21 20 21 21 22 22 23 24 24 23 23 23 22 22 22 23 23 24 23 22 20 17 15 15 14 17 22 24 24 25 28 28 27 28 26 26 27 26 26 19 13 13 13 16 15 11 17 19 14 15 21 34 33 16 15 18 14 20 22 19 25 28 22 16 22 25 16
23 23 21 19 18 17 18 19 22 24 24 21 19 19 19 19 19 21 24 25 26 25 22 21 20 21 22 23 24 23 23 23 23 22 22 22 22 23 23 24 23 21 19 16 15 15 15 18 23 24 24 27 29 28 28 28 27 27 26 27 25 20 18 14 13 14 14 14 13 13 15 16 23 23 13 13 14 13 15 13 14 16 17 15 13 20 19 14
21 23 23 22 20 18 17 17 19 22 25 26 23 20 19 20 20 19 20 22 24 26 25 24 22 22 21 21 22 22 23 23 23 23 22 22 22 22 23 23 23 22 20 18 15 15 14 16 20 24 24 25 28 29 29 29 28 28 27 26 27 27 24 20 15 13 13 14 14 14 15 14 15 15 14 13 12 14 15 13 14 14 15 14 12 14 12 17
21 22 23 23 22 20 18 17 17 19 23 27 27 25 23 21 21 21 21 19 20 23 26 26 25 24 22 21 21 21 22 23 23 22 22 22 22 21 22 23 23 22 21 20 17 16 15 15 17 21 25 25 26 29 30 30 29 28 29 27 27 28 27 26 22 18 15 13 13 13 14 15 15 15 14 14 13 13 14 14 15 15 17 15 13 14 14 18
21 22 22 23 22 21 20 18 17 17 19 23 26 28 28 26 24 23 22 21 20 20 23 26 27 27 25 23 22 20 21 22 23 23 22 22 22 21 21 21 23 23 22 21 18 16 16 15 15 18 23 26 26 27 29 31 30 29 29 29 29 27 27 28 26 25 22 18 14 11 13 15 14 14 14 14 14 13 13 13 14 15 16 17 17 14 15 16
17 19 21 21 22 22 21 20 18 17 17 19 23 26 29 30 28 26 24 22 21 20 20 23 26 28 28 26 25 22 20 20 20 22 22 22 22 22 21 21 22 23 23 22 20 17 16 15 15 16 19 24 26 27 28 30 31 31 31 30 31 29 28 28 28 28 26 25 20 14 17 20 14 13 14 14 14 13 13 13 13 13 13 19 21 15 14 15
13 15 17 19 20 21 21 20 19 18 18 18 19 22 26 29 30 31 28 25 24 23 21 21 24 27 29 29 28 25 23 20 19 19 20 22 23 22 21 20 21 22 23 22 21 18 17 16 15 16 17 21 25 27 27 29 30 31 32 32 32 32 32 30 29 29 28 28 26 23 24 24 17 14 13 14 14 14 14 13 14 13 12 15 17 15 15 17
11 11 13 15 16 18 19 20 20 19 19 18 18 19 22 26 29 31 33 31 27 24 22 21 22 24 26 28 29 29 27 24 21 19 19 20 21 21 20 20 20 21 22 22 22 20 18 17 16 16 17 18 22 26 28 29 30 31 31 33 34 33 33 32 32 32 31 29 28 27 27 27 26 22 18 14 15 21 20 14 14 15 13 13 14 16 16 18
11 11 11 12 13 14 16 17 18 19 19 19 18 18 19 22 25 28 33 35 32 28 24 23 23 22 23 25 27 28 29 28 26 22 20 19 20 20 19 19 19 19 21 22 22 21 19 17 17 17 17 18 19 23 27 30 30 30 30 31 33 34 33 33 33 34 34 33 30 29 28 29 31 32 32 24 18 24 22 14 14 16 16 15 14 15 16 18
11 11 10 10 11 11 12 13 15 17 18 19 19 18 18 19 21 24 27 33 34 32 28 26 25 22 22 23 23 26 29 30 29 27 23 20 19 19 18 18 18 18 20 22 22 21 20 18 17 17 17 18 19 20 24 29 32 32 32 31 31 32 32 31 32 33 34 35 34 32 30 30 29 33 41 33 23 25 24 20 19 17 18 17 15 16 16 17
11 11 10 10 10 10 10 11 12 13 15 17 18 18 18 18 20 21 22 26 29 32 33 31 26 23 22 23 23 25 25 27 30 30 27 24 21 19 17 17 17 17 18 20 22 22 21 19 18 17 18 18 19 19 21 25 31 34 35 34 32 31 31 30 30 31 33 35 36 36 34 34 32 32 35 32 28 30 29 29 28 24 24 23 21 19 18 17
11 11 10 10 10 10 10 10 10 11 12 13 15 17 18 18 19 19 20 21 23 28 34 35 31 26 24 25 23 21 22 28 32 31 29 28 25 21 18 17 17 17 17 17 20 22 21 21 19 17 18 18 18 19 20 22 28 32 35 37 37 35 33 31 30 29 30 32 34 35 35 35 36 35 34 32 31 30 30 31 32 32 31 30 30 26 26 30
11 11 11 10 10 10 10 10 9 9 10 10 11 13 15 17 18 19 19 20 20 24 28 32 33 30 27 26 23 22 25 28 28 29 31 30 28 24 20 18 17 16 16 16 19 21 22 21 20 18 17 18 18 18 18 20 24 28 31 35 38 38 38 36 35 33 31 31 31 33 34 34 36 38 37 35 33 31 30 31 31 33 32 32 36 32 34 43
11 11 11 10 10 10 9 9 9 9 9 9 10 10 12 14 15 18 19 19 20 21 22 26 30 31 32 29 26 26 26 24 25 30 32 32 31 28 24 20 18 17 16 16 17 19 21 22 21 19 18 17 18 18 18 19 20 23 26 30 34 36 38 39 40 39 38 36 33 33 33 32 33 37 39 38 37 34 32 31 29 31 31 30 36 35 36 43
12 11 11 10 10 10 10 9 9 9 9 9 9 9 9 10 12 14 16 18 20 21 21 22 24 28 32 32 29 27 24 23 27 30 31 32 32 31 29 24 19 17 16 16 16 16 19 22 22 20 19 18 18 18 18 18 18 19 21 24 29 32 34 37 38 39 40 40 39 37 36 33 31 33 37 38 39 38 36 35 31 30 32 30 34 38 37 39
12 12 11 11 10 10 10 10 9 9 9 9 9 9 9 9 10 11 13 15 18 20 21 20 21 23 28 31 31 28 25 24 25 27 28 30 31 31 31 28 23 19 17 17 16 16 17 20 22 22 20 19 18 18 18 18 18 18 19 20 23 26 28 31 32 33 35 37 38 39 39 37 33 32 33 35 39 39 38 38 36 33 33 32 33 36 37 37
12 12 11 11 11 11 10 10 10 9 9 9 8 8 8 8 9 9 10 11 14 17 19 20 20 20 23 27 30 30 28 26 26 26 26 27 29 30 32 32 28 22 18 17 16 16 16 18 21 21 21 20 18 18 18 18 18 17 18 19 20 21 22 24 26 27 28 30 33 36 39 39 37 34 32 33 36 38 38 40 41 38 35 34 33 33 35 37
12 12 11 11 11 11 11 10 10 10 9 9 9 8 8 8 9 9 9 9 10 13 16 19 20 20 21 24 27 31 32 30 28 26 25 26 28 31 33 34 34 29 22 18 17 17 16 16 18 19 21 21 19 19 19 19 18 17 17 18 17 19 19 20 21 22 23 24 26 29 33 35 36 34 32 32 34 36 37 38 41 42 39 37 35 34 37 38
13 13 12 11 11 11 11 11 10 10 9 9 9 8 8 8 8 9 9 8 9 10 12 16 19 20 21 21 23 28 31 30 30 27 25 27 29 31 33 33 34 33 28 22 18 17 16 16 16 17 19 20 20 19 19 19 18 17 17 18 17 17 18 18 19 19 20 21 22 23 25 28 31 32 33 34 33 34 35 36 38 41 41 39 38 37 38 39
12 12 12 12 11 11 11 11 11 11 10 9 9 9 9 9 9 8 8 8 8 8 9 12 15 19 21 21 21 24 26 29 31 30 28 28 30 30 32 33 34 36 35 29 21 17 17 16 16 17 17 19 20 19 19 19 18 18 17 17 17 17 17 18 17 18 18 19 19 20 21 23 24 28 32 34 33 32 33 33 34 38 41 41 40 38 38 40
11 11 12 12 12 12 11 11 11 11 10 10 10 10 10 9 9 8 8 8 8 8 9 9 11 15 19 21 21 22 26 30 33 33 31 30 31 31 32 34 34 37 39 36 28 21 17 16 16 16 16 17 19 19 19 19 18 18 17 17 18 18 17 18 18 17 18 18 18 19 20 21 21 23 27 31 34 33 32 31 32 36 39 40 40 40 39 40
10 10 11 11 11 12 12 12 11 11 10 10 10 11 11 10 9 8 8 8 8 8 9 9 10 12 15 19 21 22 25 28 31 33 33 32 31 31 33 33 33 38 41 39 35 27 20 16 16 16 16 16 17 19 20 20 19 18 17 17 17 18 18 19 18 18 18 18 18 18 18 19 20 21 23 26 31 33 33 33 33 35 37 38 40 40 39 39
10 10 10 10 10 11 11 12 12 11 11 11 11 11 11 10 10 9 9 8 8 8 9 9 9 10 11 15 19 21 23 24 28 33 34 33 32 30 31 31 31 36 38 39 40 35 26 20 16 15 16 15 16 18 19 20 19 18 18 17 17 18 18 18 18 18 19 18 18 18 18 18 19 21 22 23 27 31 34 35 36 37 37 38 40 41 41 40
11 10 10 10 10 10 10 11 11 12 12 11 12 11 11 11 10 10 9 8 8 8 8 8 8 8 9 11 15 19 22 25 27 31 33 31 31 31 31 31 33 36 38 40 43 41 34 26 18 16 16 16 16 16 17 18 18 19 19 18 18 18 18 18 18 18 18 19 18 18 18 17 18 20 21 22 24 28 32 36 38 40 39 39 41 42 43 42
12 12 11 10 10 10 9 10 10 11 11 11 11 11 11 11 11 10 9 9 9 8 8 8 8 8 8 9 12 15 21 25 26 31 35 34 33 34 33 33 35 36 37 38 39 39 38 32 24 18 16 16 16 16 16 17 17 18 19 19 19 18 18 18 18 19 19 19 18 18 18 17 17 19 22 24 25 26 30 35 38 42 43 42 43 44 46 46
14 14 12 10 10 10 10 10 10 10 11 11 11 11 11 11 11 10 9 9 9 8 8 8 7 8 8 9 11 12 16 21 25 32 37 37 37 39 36 34 35 35 35 36 37 37 39 38 32 24 18 15 16 16 17 16 16 17 18 19 19 18 18 19 18 19 20 18 17 18 19 18 16 17 21 23 24 25 28 34 38 42 45 45 46 47 48 49
17 16 15 12 10 10 10 10 10 10 10 10 10 10 11 11 10 10 10 9 9 8 8 8 7 8 8 9 10 10 12 17 23 32 37 37 39 39 38 37 37 37 37 38 37 33 36 42 39 32 23 17 15 16 17 17 16 17 17 17 18 18 18 19 19 20 19 18 18 18 19 19 17 17 19 20 22 23 26 32 37 41 45 47 48 48 49 51
20 19 17 14 11 11 11 10 10 10 9 10 10 10 10 10 10 10 10 9 9 9 8 8 7 8 8 9 9 9 10 14 20 28 35 39 39 37 38 40 39 37 36 37 33 28 35 43 42 39 32 22 17 16 16 18 17 17 17 16 17 18 18 19 19 19 19 18 19 19 19 19 18 17 18 18 20 22 24 29 35 42 46 48 49 50 51 51
23 24 21 17 13 11 11 11 10 10 10 9 10 10 10 10 10 10 9 9 9 8 9 8 8 8 8 9 9 9 11 13 16 21 28 33 32 32 40 46 45 40 37 36 32 31 40 42 40 43 40 30 25 19 15 17 17 17 18 17 17 18 18 19 19 19 20 19 18 18 19 19 19 18 18 18 20 21 22 25 33 42 47 49 51 53 53 51
27 28 25 21 17 14 13 12 11 11 10 10 10 10 10 10 10 10 9 9 9 8 9 8 8 8 8 8 9 9 10 13 14 15 22 28 30 36 47 52 50 45 42 41 37 35 40 37 35 44 46 39 35 27 19 18 17 17 18 18 18 18 18 18 19 19 20 19 19 19 18 19 19 19 18 19 20 21 22 23 31 42 48 50 52 52 52 51
33 35 32 26 21 18 16 16 14 12 11 11 10 10 10 10 10 10 9 9 9 9 9 9 9 8 8 8 10 9 10 14 14 13 20 26 28 38 50 53 50 49 47 46 42 38 37 35 37 47 49 45 43 36 27 22 18 17 18 19 19 19 19 19 19 20 20 20 20 20 19 19 18 19 19 18 19 20 22 25 31 42 49 52 52 51 51 52
46 45 41 34 28 24 21 19 16 13 12 11 11 10 11 11 10 10 10 9 10 10 9 9 9 9 9 9 9 10 12 14 14 14 19 24 25 36 51 52 51 54 54 51 49 45 42 40 43 48 48 48 48 43 38 30 22 18 18 20 21 20 20 20 19 20 20 20 21 21 20 19 18 18 18 18 19 19 22 27 33 42 50 53 53 51 52 53
62 56 52 47 39 30 25 22 18 15 13 12 12 11 10 10 10 10 10 10 10 10 9 9 9 9 10 10 9 10 11 12 13 14 17 21 24 36 52 56 54 55 54 52 51 50 49 48 47 47 49 53 52 48 47 41 30 23 19 20 22 21 21 21 20 20 21 21 22 21 20 20 18 18 17 17 18 17 20 26 33 42 50 53 54 52 51 52
78 69 64 60 49 38 30 26 22 18 15 13 12 12 11 10 11 10 11 11 10 10 10 9 10 10 10 11 9 9 10 11 14 15 16 19 21 29 44 55 57 54 50 50 52 53 52 51 47 44 49 56 54 50 51 48 40 32 25 21 22 21 22 21 21 21 20 21 22 21 20 20 18 17 18 18 17 16 19 26 34 44 51 53 54 53 52 52
91 84 77 68 56 45 36 30 26 20 16 14 13 12 11 11 11 11 11 11 10 10 11 10 10 11 11 10 9 9 10 10 12 14 17 19 19 21 31 41 49 51 48 47 51 53 52 50 48 47 49 53 52 52 54 52 46 40 33 27 25 24 23 22 22 22 21 21 21 20 20 20 19 18 18 18 18 16 18 26 35 45 51 53 54 53 53 54
Wind_Speed
28 26 25 23 22 21 19 18 17 16 15 13 12 11 10 10 9 8 7 7 8 9 10 11 12 14 15 16 17 18 19 19 19 21 22 22 23 23 25 26 28 29 29 30 32 33 36 38 39 38 36 34 32 29 24 19 15 9 3 3 6 6 5 4 4 4 5 5 7 9 11 12 11 10 10 10 9 9 8 6 6 5 5 5 4 4 4 5
31 29 28 27 25 24 22 21 20 19 18 17 15 14 13 12 12 11 9 8 8 9 9 11 12 13 14 15 16 17 18 18 18 19 20 21 22 22 23 24 26 27 28 29 30 31 33 36 38 38 37 35 34 32 29 24 20 16 10 5 6 7 6 5 4 4 4 3 4 6 8 10 10 10 10 9 8 8 7 6 5 4 4 3 3 2 2 2
34 33 31 30 28 27 25 24 23 22 21 20 18 17 16 15 14 13 12 11 9 9 10 10 11 12 13 14 14 15 16 17 18 18 19 20 21 21 22 23 24 26 26 27 28 29 31 33 36 37 37 37 36 34 32 28 23 21 15 9 7 7 7 6 5 3 4 3 5 6 6 8 9 10 10 8 7 7 6 5 4 3 3 2 1 2 2 2
37 36 34 33 32 30 29 27 26 24 23 22 21 20 18 17 17 16 15 14 12 10 10 11 11 11 12 13 13 14 15 16 17 17 18 19 20 20 21 22 22 24 25 26 26 27 29 31 33 36 37 37 35 34 34 30 26 25 19 13 10 7 6 6 5 4 3 3 6 6 6 6 7 8 8 8 7 6 5 4 3 2 1 0 1 1 2 2
39 38 37 36 35 33 32 30 29 27 26 25 24 23 21 19 19 19 18 17 15 13 12 12 11 11 12 12 13 13 13 15 16 17 17 18 19 19 20 21 21 22 23 24 25 26 27 28 31 34 36 36 35 34 33 32 29 27 22 17 13 9 7 6 4 3 3 4 7 7 5 4 4 4 5 6 6 4 3 3 2 0 0 2 2 3 3 3
42 41 40 39 38 37 35 33 32 30 29 28 27 25 23 22 21 21 20 19 18 15 14 13 12 12 12 12 13 13 13 13 15 16 17 17 18 19 19 20 21 21 21 23 24 24 25 26 28 31 34 35 35 34 33 33 31 28 25 21 16 12 10 8 6 2 2 5 8 7 5 4 3 3 3 3 2 1 1 1 1 2 3 4 4 5 5 5
44 43 42 41 40 39 38 37 35 33 31 30 29 28 26 25 23 22 22 22 21 18 16 15 14 13 12 12 13 13 13 12 13 15 16 17 18 18 18 19 20 20 20 21 22 23 24 25 26 29 32 34 35 34 33 33 32 29 26 24 21 17 14 12 8 4 1 5 9 8 6 5 3 4 4 2 2 3 3 3 3 3 4 5 6 7 7 7
45 45 44 44 43 42 41 39 37 36 34 33 32 31 29 28 26 25 24 24 23 21 19 17 15 15 14 13 13 13 13 12 12 13 15 16 17 18 18 18 18 19 19 19 20 22 23 24 25 26 29 32 34 34 33 33 32 30 27 25 25 23 19 16 11 6 1 5 9 9 6 5 4 4 4 3 3 4 5 5 5 5 6 6 6 7 8 8
45 45 45 45 45 44 44 42 40 38 37 36 35 34 31 30 29 27 26 26 25 23 22 19 18 16 15 14 14 14 14 13 12 12 13 15 16 17 18 18 18 18 18 17 18 20 22 22 23 25 27 30 32 33 33 32 31 31 29 27 27 27 24 19 13 8 3 2 6 7 5 4 3 3 3 4 4 5 6 7 7 7 8 7 7 8 9 9
46 45 45 45 46 46 46 45 43 41 39 38 38 36 34 33 32 30 29 28 27 25 24 22 20 18 17 16 15 14 14 14 13 12 13 14 15 16 17 17 17 17 17 17 17 18 20 21 22 23 24 27 30 32 33 32 31 31 30 29 28 27 25 21 16 11 8 5 3 3 3 4 3 2 2 4 5 6 6 7 8 8 9 9 8 8 9 9
47 47 46 46 46 46 47 46 45 44 42 41 40 39 37 36 34 33 32 30 29 27 26 24 22 20 19 18 16 16 15 15 14 13 13 13 14 16 17 17 17 16 16 16 16 16 18 20 21 22 23 25 28 31 32 31 31 30 30 30 29 27 25 22 18 15 12 9 7 6 4 1 2 3 4 6 6 7 7 7 8 8 9 9 9 9 9 9
50 49 48 47 47 47 47 47 47 46 44 43 43 41 39 38 37 36 35 33 31 30 29 27 25 23 21 20 19 17 16 16 15 14 14 13 14 15 16 16 17 16 15 16 15 14 16 18 19 20 21 23 25 28 30 31 31 30 30 30 29 27 25 22 19 17 16 13 11 10 8 6 3 2 5 7 7 6 6 6 7 8 8 7 8 8 9 10
53 51 50 49 49 48 48 47 47 47 46 46 45 44 42 41 39 38 37 36 33 32 31 29 27 25 24 22 21 19 18 17 16 16 15 14 14 15 16 16 17 16 15 15 15 14 13 15 17 19 20 21 23 25 28 29 29 29 30 30 29 28 25 22 20 19 18 16 14 13 10 8 6 4 6 6 5 6 5 5 6 6 6 6 7 7 8 8
56 54 53 52 51 50 50 49 48 47 47 47 47 46 44 43 42 41 40 38 36 35 33 32 29 28 26 25 23 21 19 18 17 17 16 15 14 15 16 16 16 16 15 14 14 13 12 13 15 17 18 19 21 22 25 27 28 29 29 29 28 28 26 23 20 18 18 17 16 14 11 9 7 6 6 5 4 5 5 4 5 5 6 6 6 6 6 6
59 58 56 55 53 52 52 51 50 48 47 47 48 48 47 46 44 43 43 41 39 37 36 34 32 31 28 27 26 24 22 20 19 18 17 16 15 15 15 16 16 16 16 15 14 13 12 11 13 14 16 17 19 20 22 24 26 27 28 28 28 27 26 24 22 19 17 15 15 13 10 10 9 7 7 7 6 5 5 4 4 4 4 5 5 5 4 4
62 61 59 58 56 55 54 53 52 51 49 48 48 48 48 48 47 46 45 43 41 40 38 36 35 33 31 30 29 26 25 23 21 20 19 17 17 16 16 16 16 16 16 15 14 13 12 11 11 12 13 15 17 19 20 22 24 26 27 27 27 27 26 24 23 21 18 16 14 12 9 10 9 7 8 8 7 6 4 3 2 2 3 4 4 4 5 6
65 64 63 61 60 58 57 56 54 53 51 50 49 49 49 49 49 48 47 46 44 42 41 39 38 36 34 33 30 28 28 25 23 22 20 19 18 17 16 16 16 17 16 16 15 14 12 11 10 11 12 13 15 17 18 20 21 24 25 26 25 25 25 24 23 23 21 18 14 12 9 8 7 6 7 7 6 5 4 3 2 2 3 4 5 5 6 7
68 67 66 64 63 61 60 58 57 56 54 53 52 50 49 49 50 50 50 48 47 45 43 41 41 39 36 34 32 32 31 28 26 24 22 21 20 19 18 17 17 17 17 17 16 14 13 12 11 10 10 11 12 14 16 17 19 20 22 22 23 23 24 23 22 22 22 20 18 16 13 9 7 7 8 7 6 6 5 4 3 3 3 5 6 5 6 7
70 69 68 67 66 64 63 61 60 59 57 55 54 53 51 50 50 50 51 50 49 48 46 44 43 41 38 37 36 36 33 31 29 27 25 23 22 21 19 18 18 18 18 18 17 16 14 13 11 10 10 9 10 11 13 14 16 17 18 19 20 22 23 22 21 21 21 20 19 19 17 14 12 11 11 11 10 10 9 8 7 7 6 7 8 7 7 8
73 71 71 70 68 67 66 64 63 62 60 58 57 55 53 52 51 51 51 52 51 50 49 47 45 43 42 41 39 38 35 34 32 30 28 26 24 23 21 20 19 18 19 18 18 17 16 14 12 11 10 9 9 9 10 12 13 14 15 17 19 20 21 20 20 19 19 19 19 18 18 17 15 15 15 15 15 14 14 13 12 12 11 11 12 11 12 11
74 73 72 72 71 69 68 67 65 64 63 61 60 58 56 54 53 52 52 52 51 51 51 50 47 46 45 43 42 41 38 37 35 33 31 29 27 25 23 22 21 20 20 19 19 18 17 16 14 12 10 9 9 8 8 9 11 12 13 15 16 17 18 18 18 18 17 17 17 17 17 17 16 16 16 16 17 17 16 16 15 14 14 14 14 14 14 14
75 74 74 73 72 72 71 69 67 66 65 63 62 61 59 57 55 54 54 53 52 52 52 51 50 49 48 46 45 43 41 40 38 36 34 32 30 28 26 24 22 22 21 21 20 19 19 18 16 14 12 10 10 8 8 8 9 10 11 12 13 14 15 16 16 17 16 15 15 15 15 15 16 16 16 16 16 17 17 17 16 16 15 15 15 16 16 16
74 74 74 74 74 73 72 71 70 68 66 65 64 63 61 60 58 57 56 55 54 53 52 52 52 51 50 49 47 45 44 43 41 38 37 34 32 31 29 26 25 24 23 22 21 21 20 20 19 17 14 12 11 10 8 8 8 9 9 11 12 12 13 13 14 15 15 15 15 15 14 13 14 14 15 16 16 16 16 16 16 16 16 15 15 17 18 18
73 74 74 74 74 74 73 73 72 71 69 67 66 65 63 62 61 59 58 56 55 55 54 53 53 53 53 52 50 48 46 45 43 41 39 37 36 35 32 29 27 26 25 24 23 22 21 21 21 19 17 15 13 12 10 9 9 9 9 9 11 11 12 12 13 14 14 14 14 15 14 13 14 14 14 15 16 15 16 16 15 16 16 16 16 17 18 19
73 73 73 74 74 74 74 74 73 73 71 69 68 67 65 64 63 61 60 58 58 57 56 54 54 54 54 53 52 51 49 47 45 43 41 39 38 37 35 32 30 28 27 26 24 23 23 23 22 21 20 18 16 14 13 11 10 10 10 10 11 11 12 12 12 13 13 13 13 14 14 15 16 15 15 17 16 15 16 17 17 17 17 17 17 17 18 19
74 73 73 73 74 74 74 74 74 74 73 72 70 69 67 65 64 63 62 61 61 60 58 56 56 56 55 55 54 53 51 49 47 45 43 41 40 39 36 35 33 31 30 28 26 25 25 24 24 23 22 20 19 17 16 14 12 12 11 11 11 12 12 12 13 13 14 14 13 13 13 14 15 14 15 17 17 15 16 18 19 19 18 18 19 18 19 19
76 75 74 73 73 73 74 74 73 73 73 73 72 71 69 67 65 64 64 64 63 62 60 59 58 57 56 55 55 54 53 52 50 48 46 44 43 41 38 36 35 34 32 31 28 27 27 26 25 24 23 22 21 20 19 18 16 14 14 13 13 13 14 13 13 13 14 15 15 14 14 13 14 13 13 15 17 17 18 19 20 21 20 20 21 21 20 21
77 76 75 74 74 73 74 74 73 73 73 73 73 73 72 70 68 66 66 66 65 63 61 61 61 59 57 55 56 56 55 53 51 50 49 47 45 43 40 38 37 36 35 34 31 29 29 28 27 26 25 24 23 22 22 21 20 18 17 17 16 15 15 15 14 14 14 15 16 15 15 14 15 15 14 16 17 18 19 19 20 22 23 23 23 23 22 22
79 78 77 76 75 74 74 74 74 73 73 73 73 73 73 72 71 69 68 68 66 63 63 63 63 61 58 57 58 57 55 54 54 53 51 49 47 45 42 40 39 39 39 36 33 32 31 30 29 28 27 26 25 24 24 22 22 22 21 20 20 19 18 17 16 16 16 16 16 17 16 15 15 16 17 17 18 18 19 20 21 22 24 25 25 25 24 24
81 80 79 77 76 76 75 74 74 74 73 73 73 73 74 74 73 72 72 70 67 64 65 65 64 62 60 60 59 56 56 58 57 55 52 51 49 47 44 42 40 41 41 38 36 35 33 32 32 31 29 29 27 26 25 24 24 25 24 23 23 22 21 20 18 18 18 18 18 18 18 17 16 17 18 19 19 19 19 19 20 21 23 25 25 26 25 24
82 82 81 79 78 77 76 75 75 75 74 74 74 74 74 74 75 74 73 72 69 67 67 67 66 64 63 62 60 58 60 59 57 56 55 54 51 49 47 44 43 44 43 41 40 38 35 34 34 34 32 31 30 28 27 27 26 26 26 25 25 24 23 23 22 20 20 20 20 20 20 20 18 18 19 21 21 21 21 21 21 21 23 25 25 26 26 24
84 84 83 81 80 79 78 76 76 76 75 74 75 74 74 75 74 74 74 73 70 69 70 70 68 66 65 64 63 62 62 59 57 59 58 56 54 52 50 48 47 46 44 44 43 40 38 37 37 36 35 34 33 31 30 29 29 29 28 27 26 26 26 25 24 23 22 22 21 21 22 22 21 19 20 21 23 23 23 23 23 23 23 26 26 27 27 27
85 85 85 83 82 81 80 78 78 77 75 75 75 75 76 75 74 74 74 74 73 74 75 72 69 68 68 67 65 64 62 60 59 60 59 59 57 55 52 51 50 48 45 45 44 42 41 41 40 39 38 37 35 34 33 32 31 31 30 29 28 28 28 28 27 26 25 24 23 22 23 23 23 22 21 21 23 25 25 25 25 25 25 26 26 27 28 29
87 87 87 85 84 83 82 81 80 79 77 76 76 75 75 74 74 74 74 75 76 77 76 74 72 71 70 68 68 66 63 62 61 61 61 60 58 56 54 52 51 49 48 46 44 44 44 44 44 42 40 39 38 36 36 35 34 34 32 31 31 30 30 30 30 29 28 27 26 25 25 26 25 24 23 22 23 25 27 27 27 28 27 27 27 28 29 30
89 89 88 87 86 85 84 83 82 81 79 78 77 76 74 73 74 75 76 78 79 77 77 76 75 74 72 71 69 67 66 64 63 63 62 60 59 58 56 54 53 53 50 47 46 47 47 48 46 44 43 42 40 39 39 39 38 36 34 33 33 31 31 32 32 32 31 30 29 29 28 28 27 26 25 25 25 26 27 28 29 30 30 30 29 30 30 30
90 90 90 89 87 86 86 85 84 83 81 79 78 76 74 73 74 76 80 82 79 77 78 78 77 77 75 73 71 69 68 67 65 64 62 61 61 60 59 57 56 54 52 51 50 49 49 49 47 47 46 44 42 41 42 42 41 38 37 36 35 33 34 34 34 33 33 33 33 32 32 31 30 29 28 28 27 27 28 29 29 31 31 32 32 32 31 32
92 92 91 90 89 88 87 86 85 84 83 81 78 76 75 75 76 79 82 81 77 77 78 79 79 79 77 76 74 71 69 68 66 65 64 63 63 62 61 60 57 55 55 55 52 49 51 51 48 49 49 46 44 43 43 44 43 41 41 39 36 36 36 36 36 35 35 36 36 36 35 34 34 31 30 30 30 30 30 30 30 31 32 33 33 33 33 34
92 93 93 92 91 89 88 88 87 86 85 82 79 78 77 77 79 80 79 77 75 76 78 79 81 80 80 80 76 72 71 70 68 67 66 65 65 64 63 62 59 58 58 58 54 52 54 53 49 50 51 48 47 46 44 46 45 44 43 40 39 39 38 38 38 37 37 38 38 38 38 38 37 35 33 33 33 33 33 33 32 32 33 34 34 34 35 35
91 93 94 93 92 91 90 89 88 87 85 82 80 80 79 80 81 78 76 76 76 78 80 82 83 83 83 82 78 75 74 72 70 70 68 67 67 66 66 65 61 60 61 59 57 57 56 55 52 52 52 50 48 47 47 48 48 46 45 43 41 42 41 40 40 39 39 40 41 40 40 41 39 38 37 36 36 36 35 35 34 35 36 36 35 36 36 36
90 91 93 94 93 92 91 90 89 88 85 83 83 82 81 82 82 79 78 78 78 80 83 85 86 86 85 83 81 79 77 75 73 72 70 70 69 68 67 65 62 63 63 61 60 59 58 58 56 53 52 51 49 50 51 51 49 48 47 45 44 45 44 43 41 41 41 42 43 42 43 43 40 40 41 39 39 39 38 37 37 37 38 38 38 38 38 38
88 89 91 93 93 92 92 91 90 89 87 86 85 84 84 83 82 82 82 80 79 81 84 85 85 86 86 84 82 81 78 77 75 74 73 72 70 68 67 66 65 65 65 63 63 62 60 61 59 54 52 52 53 53 53 53 51 50 50 48 48 48 47 45 44 43 43 44 45 45 45 45 42 42 43 41 42 43 42 41 40 40 41 41 41 41 41 41
87 86 88 91 91 91 91 91 91 90 89 88 87 87 86 84 84 85 84 82 82 83 84 85 85 85 85 84 84 82 81 80 77 75 75 73 70 70 69 68 68 68 66 65 65 64 62 62 61 56 52 54 55 52 53 55 53 52 52 51 52 51 48 47 46 45 46 47 46 45 47 47 45 44 43 42 43 45 44 45 44 44 44 44 43 43 44 44
85 84 86 89 89 89 89 90 90 90 90 89 89 88 86 85 86 87 85 85 85 84 84 86 86 85 85 86 87 86 84 82 79 77 77 76 73 73 72 70 70 69 67 67 66 65 63 62 61 58 56 57 55 52 55 57 55 54 55 54 54 53 50 49 48 48 49 49 47 46 49 50 47 45 44 44 45 45 45 46 46 46 46 46 46 46 46 47
83 83 85 86 86 86 86 87 89 89 90 91 90 88 87 88 89 87 87 87 87 85 85 86 85 85 86 88 89 89 86 82 80 80 80 79 77 75 74 71 71 71 69 70 69 66 63 63 63 61 60 58 56 55 58 59 57 58 58 56 55 54 52 50 51 51 51 50 50 49 51 52 49 47 47 46 47 47 47 47 48 47 48 48 48 48 48 49
81 81 82 83 84 83 83 84 86 86 88 89 89 88 90 91 90 89 89 89 87 85 85 85 85 85 86 87 89 89 86 84 84 84 82 82 80 78 75 73 73 74 72 72 70 64 62 65 64 63 62 59 57 58 61 61 60 59 59 57 55 54 54 54 53 54 53 52 52 52 54 55 51 50 50 49 48 49 48 48 49 49 49 49 48 49 50 51
79 79 80 81 81 80 80 81 83 84 85 87 88 90 91 91 90 90 90 89 88 86 85 85 86 86 86 87 89 90 88 87 89 87 85 85 83 78 75 74 76 76 73 73 70 64 65 69 65 64 64 60 60 63 64 63 61 59 59 59 57 55 56 56 55 56 56 55 54 53 56 57 55 54 53 51 50 51 50 49 49 50 51 50 49 49 51 53
77 76 76 78 79 78 78 78 79 81 82 84 87 89 90 90 90 90 90 90 88 86 86 86 86 86 86 87 89 89 89 91 92 89 86 85 82 77 76 77 79 77 74 73 71 68 70 70 64 64 66 63 63 66 66 64 61 61 61 60 58 58 57 57 56 57 59 58 56 56 56 58 58 58 56 53 52 53 52 51 50 51 52 52 51 51 53 55
74 73 74 75 77 77 76 75 76 78 79 81 84 86 88 89 90 91 91 89 88 86 86 87 87 87 88 88 89 90 91 93 94 90 86 87 84 80 80 81 80 78 76 75 73 71 71 69 65 68 69 66 66 68 66 63 63 64 63 61 61 59 58 58 57 58 60 61 60 60 58 59 60 60 58 56 54 54 54 53 52 53 54 54 54 54 54 56
72 71 72 73 74 75 73 72 74 77 77 79 81 83 86 89 90 91 90 88 87 88 87 87 88 89 88 88 89 91 91 94 95 92 89 89 86 81 82 83 81 80 79 78 75 72 70 69 69 71 70 68 68 68 66 65 66 67 65 63 62 60 59 59 59 60 62 63 64 63 60 60 62 62 60 58 57 56 55 55 54 54 54 55 56 57 56 57
71 70 69 70 72 72 72 72 73 75 75 76 78 81 85 88 89 90 89 89 89 89 87 88 89 88 87 88 91 92 90 92 95 95 93 92 88 84 84 85 84 83 83 80 77 74 72 71 72 71 70 70 71 69 68 68 69 69 67 65 63 61 61 61 61 62 64 64 66 66 63 62 63 63 61 60 60 59 57 57 57 56 56 57 58 59 59 60
70 68 68 69 69 70 71 71 71 71 72 73 75 77 82 85 86 87 88 89 89 87 87 87 87 88 89 92 93 92 91 93 96 96 95 94 92 89 88 87 86 86 85 82 79 77 75 75 73 71 71 73 73 71 71 72 72 70 68 66 64 63 64 64 64 66 66 66 68 67 65 65 64 62 62 62 62 62 60 59 59 58 59 60 60 62 62 63
69 68 67 67 67 68 69 69 69 69 70 70 71 74 77 81 83 85 88 89 88 86 87 87 87 89 93 94 93 91 92 94 95 96 97 97 95 93 91 90 89 88 87 84 81 81 79 76 72 71 73 75 74 72 74 76 74 71 69 68 66 65 66 66 67 69 68 68 69 68 67 67 64 63 63 63 64 64 62 61 60 60 61 62 62 64 65 65
Wind_Direction
236 236 236 235 235 235 234 236 242 247 248 249 251 254 259 269 279 287 298 312 325 333 341 347 352 358 3 8 12 17 19 20 20 20 21 23 25 26 29 30 31 32 31 32 33 33 34 35 36 37 39 40 41 44 46 47 46 49 79 182 181 167 152 158 180 180 178 189 185 171 160 154 149 144 141 139 138 134 130 122 116 120 130 145 174 199 206 210
236 237 238 237 237 236 236 236 239 244 249 251 252 255 258 262 270 277 285 294 307 316 327 334 341 349 354 360 6 12 15 17 18 17 18 19 22 23 25 28 30 31 31 30 31 32 32 33 33 34 36 37 38 40 43 46 47 51 63 97 146 149 143 163 188 198 191 202 214 191 167 154 147 142 136 133 135 134 129 116 107 106 110 123 150 171 188 204
234 236 238 239 239 238 238 238 238 241 246 250 252 254 258 262 266 271 277 282 291 301 311 321 330 338 345 350 357 5 11 15 16 15 15 16 18 20 22 24 27 29 29 30 29 30 31 31 32 32 33 35 36 37 41 44 46 50 57 74 104 128 143 157 172 196 199 206 226 215 186 164 152 144 135 132 136 133 126 119 109 103 100 113 140 148 158 179
234 235 236 238 240 240 240 239 239 240 243 247 250 252 255 260 265 268 273 277 281 288 298 306 316 325 334 341 347 356 4 10 13 13 13 13 14 16 18 21 23 26 28 29 28 29 30 31 30 30 32 34 34 35 38 41 45 49 50 57 70 94 121 133 145 178 202 216 229 223 203 180 161 149 142 141 136 130 127 121 114 112 117 204 240 225 208 208
235 235 235 237 238 240 241 241 240 240 242 244 248 250 252 256 261 265 269 273 277 280 286 294 302 312 322 330 337 346 356 4 9 11 11 11 10 12 15 17 20 23 26 27 27 28 29 29 29 29 31 32 34 35 36 38 43 47 46 47 54 65 85 97 110 150 206 229 240 233 212 195 181 168 159 153 144 140 137 129 133 144 295 294 292 284 281 276
236 236 236 236 237 238 240 241 241 241 242 243 246 248 250 253 256 261 266 270 273 276 279 284 291 300 309 319 326 335 346 356 4 8 8 8 8 9 10 14 17 19 23 25 25 26 27 28 29 29 30 31 33 35 36 37 40 43 44 45 48 55 66 73 76 92 216 238 246 237 209 195 201 214 215 182 161 173 201 217 265 302 310 304 307 309 311 310
236 236 236 237 237 238 239 240 241 242 242 243 245 246 248 250 253 257 262 266 270 272 275 278 283 289 297 307 316 323 334 347 356 3 5 4 6 6 6 9 13 16 20 23 24 24 25 26 27 28 29 29 32 34 37 39 39 40 42 44 46 51 58 64 65 65 231 242 243 232 202 186 197 222 232 238 259 274 280 284 293 300 304 307 312 315 318 318
236 237 237 237 237 238 239 239 240 241 242 243 245 246 246 249 251 253 257 261 265 269 272 274 278 282 288 296 305 313 322 335 346 355 359 0 1 3 4 4 8 13 16 20 22 22 22 24 25 27 28 28 30 33 36 39 39 39 40 42 45 48 52 55 54 54 68 235 234 225 201 188 206 228 241 255 266 279 286 292 300 300 301 308 312 312 313 317
235 236 237 237 237 238 239 239 240 241 242 243 244 245 246 248 249 251 253 257 261 266 268 271 273 277 281 287 294 303 312 322 334 344 352 355 356 358 0 1 3 7 12 16 20 21 20 22 23 25 27 27 29 32 35 38 39 39 39 41 45 47 49 51 49 52 79 179 216 215 205 195 210 227 247 261 267 279 289 296 300 300 301 306 306 306 307 310
235 235 236 237 238 238 238 239 239 240 241 242 244 245 245 247 248 249 251 254 257 261 265 267 270 273 276 280 286 293 302 311 321 332 341 348 350 352 355 357 358 1 7 11 15 18 19 19 21 22 24 26 27 30 34 37 38 39 40 40 44 48 48 49 50 55 70 93 141 175 186 194 210 237 265 276 276 275 282 288 293 295 298 302 303 303 306 309
236 235 235 236 237 238 239 239 239 239 240 241 243 244 245 246 247 249 250 251 254 257 261 264 266 269 272 275 279 285 293 301 310 319 330 338 342 345 349 352 353 356 1 5 11 15 16 17 19 20 22 25 26 28 31 35 37 39 40 41 43 47 49 48 52 59 66 78 86 80 80 112 219 254 292 302 288 281 284 288 290 291 294 298 303 306 309 311
237 236 236 236 237 237 238 239 239 239 239 240 242 244 244 245 246 248 249 250 252 254 257 260 263 265 268 270 274 279 285 292 300 308 317 327 333 338 342 345 348 351 354 358 4 10 13 14 16 19 20 22 25 27 29 32 35 37 40 42 42 46 49 47 52 58 56 58 60 53 48 42 35 325 307 303 295 292 292 291 291 291 294 300 307 310 310 309
237 237 237 237 237 237 238 239 239 239 239 240 241 243 243 244 245 247 248 249 250 252 255 257 259 262 264 267 270 274 279 285 292 299 306 315 323 329 335 339 342 346 348 350 357 3 9 10 13 17 18 19 22 25 27 30 33 36 39 42 43 44 47 47 50 54 51 50 50 45 45 50 40 4 328 309 304 306 299 294 294 300 308 313 316 313 306 302
237 237 237 237 238 238 238 239 239 239 239 239 240 241 242 243 244 245 247 249 249 251 253 255 257 259 260 263 266 269 273 278 284 290 297 305 312 319 326 332 335 339 343 343 348 355 2 6 8 14 17 18 19 22 26 28 31 34 37 41 43 44 45 45 46 50 51 50 51 49 48 55 51 20 359 345 338 331 325 325 322 324 324 318 315 305 299 300
238 237 237 237 237 238 239 239 239 239 238 238 239 241 241 242 243 244 246 247 248 249 251 253 254 256 258 260 263 265 268 273 277 283 289 296 302 310 317 324 328 331 335 337 339 345 354 360 2 8 14 17 17 19 22 26 29 31 34 37 41 44 44 45 43 45 49 50 54 52 42 47 50 35 24 15 6 358 351 347 339 336 326 316 312 307 311 324
238 238 237 237 237 237 238 239 239 239 239 238 239 240 240 241 242 243 245 246 247 248 249 251 252 254 256 256 259 262 265 269 272 276 282 288 294 301 307 314 320 323 327 330 331 335 343 352 356 1 9 17 17 16 18 22 26 29 32 35 37 41 43 44 43 44 47 50 55 56 42 42 47 34 26 25 15 5 8 7 349 354 341 326 322 329 341 342
237 238 238 237 237 237 237 238 239 239 239 239 239 239 240 241 242 242 244 245 245 247 247 249 251 251 252 255 259 261 263 265 268 271 276 281 286 292 298 305 311 315 319 322 324 326 332 341 347 351 0 12 17 15 16 18 22 26 30 32 35 39 41 42 42 42 44 47 51 56 51 42 43 31 22 27 17 7 25 26 1 8 355 342 339 345 350 345
236 237 238 238 237 237 237 237 238 239 239 239 239 239 239 240 241 242 243 244 244 245 246 247 249 251 252 255 257 257 259 261 264 267 271 275 280 284 289 295 301 307 311 314 317 318 321 328 337 343 349 1 13 15 14 16 20 23 25 29 32 37 39 40 41 41 42 44 45 49 53 51 46 32 20 19 12 10 25 23 14 11 354 349 352 356 352 343
235 235 236 237 238 237 237 237 237 238 238 239 239 239 239 239 240 241 242 243 244 244 245 246 248 250 251 251 252 254 257 259 261 264 266 269 274 277 281 287 292 297 303 306 309 312 313 316 323 332 338 346 1 11 11 13 17 20 21 23 28 34 36 37 38 40 40 42 42 43 47 50 48 42 35 32 29 31 37 36 36 33 24 18 17 19 7 359
236 235 235 236 237 238 237 237 237 237 238 238 239 239 239 239 240 241 242 243 243 244 245 245 246 248 249 249 251 254 255 257 259 260 263 266 269 272 275 279 284 288 294 298 301 304 307 308 311 319 326 332 343 359 4 6 11 14 17 19 23 29 32 34 34 36 38 39 40 39 41 43 44 44 42 40 39 39 42 44 45 43 41 39 36 32 26 25
237 236 236 235 236 237 237 237 237 237 238 238 239 239 239 239 239 240 241 242 243 243 244 245 246 246 248 249 250 251 253 255 256 258 260 263 265 268 270 272 276 280 285 291 294 296 299 301 302 305 313 320 325 339 350 355 2 7 10 14 19 22 25 29 30 31 33 34 35 36 37 37 37 37 37 37 37 37 37 39 41 41 40 39 38 35 31 30
237 237 237 236 235 236 236 237 237 237 237 238 238 238 239 239 239 239 241 242 242 243 243 244 245 245 246 247 248 250 251 253 254 256 258 260 262 265 266 267 269 273 278 283 287 289 292 295 296 296 300 307 313 318 330 339 346 356 2 5 11 14 15 19 23 26 29 28 27 29 30 31 30 29 29 29 29 29 29 29 32 34 33 32 30 30 29 26
237 237 238 238 237 236 236 236 237 237 237 237 238 238 238 238 239 239 240 241 242 242 243 243 244 245 246 247 248 249 250 251 252 254 255 258 260 262 262 263 264 267 272 276 280 282 284 289 291 292 292 296 302 305 311 319 327 338 349 354 357 2 4 8 13 15 20 24 23 21 20 18 19 21 21 20 18 18 20 20 21 24 26 25 21 21 22 21
236 236 236 238 238 237 236 236 236 237 237 237 237 238 238 238 238 239 240 241 242 242 243 242 243 244 245 246 247 247 248 250 251 252 254 255 257 259 261 261 260 262 266 269 273 276 278 282 286 288 288 289 292 296 300 302 308 317 329 338 342 347 350 355 1 2 6 13 17 20 18 9 7 9 8 9 6 3 7 9 9 12 14 15 14 12 13 15
236 235 235 236 237 238 237 236 236 236 236 237 237 237 238 238 238 238 239 240 241 242 242 242 242 243 244 245 246 247 247 248 250 251 252 253 255 257 259 258 257 258 261 264 267 270 272 276 280 283 285 286 286 289 292 293 296 300 307 317 323 329 334 340 348 350 353 359 5 13 15 12 6 1 0 1 357 351 351 354 357 358 0 2 4 4 4 6
237 236 235 235 235 236 237 237 236 236 236 236 236 237 237 238 238 238 239 239 240 241 242 242 243 243 243 244 245 246 247 248 249 250 251 252 253 254 255 256 256 256 257 259 262 265 267 271 274 278 281 283 284 286 287 288 290 291 294 299 305 311 317 325 334 337 342 347 351 358 5 9 5 355 353 355 354 349 347 350 350 347 347 351 354 355 355 356
236 236 236 235 234 235 236 236 236 236 235 235 236 236 237 237 237 238 238 239 239 240 241 242 242 242 242 244 245 246 247 247 248 249 250 250 251 252 253 254 254 254 254 256 258 260 263 266 269 272 276 279 281 283 284 286 287 288 289 290 291 296 302 309 317 322 330 335 339 345 351 357 358 351 346 346 350 352 352 353 350 345 344 345 347 348 348 349
236 236 235 235 235 234 235 235 236 235 235 235 235 235 236 236 236 237 238 238 239 239 240 241 243 243 243 243 244 245 245 246 247 248 248 249 250 251 252 252 252 252 252 253 254 256 258 262 265 267 270 273 276 279 282 284 286 287 288 289 288 289 291 296 301 307 316 323 328 334 339 346 349 346 341 341 345 350 350 351 350 348 347 345 345 345 344 345
236 235 235 235 235 235 234 234 234 234 235 235 234 235 235 235 235 236 237 238 239 239 239 241 242 243 243 243 244 244 246 246 247 247 248 248 249 250 250 250 250 251 251 252 252 253 254 258 261 263 265 268 271 275 278 281 282 284 286 287 289 289 291 293 296 299 304 310 316 322 327 335 340 339 338 339 340 342 344 347 349 347 346 345 345 345 344 341
235 235 235 234 234 234 234 234 234 233 234 234 234 234 234 234 234 235 236 238 238 238 239 240 241 242 242 243 244 244 245 245 245 246 247 248 248 249 249 249 250 250 251 251 250 250 251 254 257 259 261 263 266 270 273 275 277 279 281 283 286 288 291 293 295 298 300 302 307 312 316 321 328 332 332 333 333 335 338 341 344 343 342 343 342 345 347 339
235 235 235 234 234 234 234 234 234 233 233 233 234 234 233 233 234 234 235 237 237 237 239 239 240 240 241 242 243 243 243 244 245 246 247 247 247 247 248 248 248 249 249 249 248 249 250 252 254 256 257 259 262 265 268 270 272 274 276 278 281 284 287 290 294 296 298 300 303 306 309 310 316 323 326 327 327 329 332 334 337 338 338 340 340 342 345 337
235 235 235 234 234 233 234 234 234 233 232 233 233 234 233 233 233 234 234 235 235 236 238 239 239 239 240 241 242 242 243 243 244 244 245 246 246 246 246 246 247 247 248 248 249 250 249 250 251 253 255 256 258 261 263 266 268 270 272 274 277 280 283 286 289 292 295 298 299 302 304 304 307 312 316 320 321 323 327 329 330 333 335 338 338 337 339 337
234 235 235 234 234 233 233 233 233 233 232 232 233 233 234 233 233 233 234 234 233 234 236 237 238 239 239 240 241 242 243 243 243 244 244 245 245 245 245 245 246 248 248 249 250 249 248 248 249 251 253 254 255 258 260 262 264 266 269 271 274 276 280 283 285 288 291 294 297 299 301 301 302 304 307 312 316 317 321 324 325 328 330 333 335 333 334 336
234 234 234 234 234 233 233 233 233 233 232 232 232 232 233 234 233 234 234 234 234 234 235 237 237 238 239 239 240 241 242 242 243 244 244 245 245 245 246 246 247 248 248 249 249 249 248 247 248 249 251 253 254 255 257 259 262 264 266 269 271 273 277 280 282 285 287 290 294 296 298 299 299 300 302 305 309 312 315 319 321 324 326 328 330 330 330 332
233 234 234 234 233 233 233 233 233 233 233 232 232 232 232 233 234 234 234 234 233 233 235 235 236 237 238 238 239 239 240 241 242 243 244 245 245 245 246 245 246 247 247 248 248 248 247 247 248 249 250 252 253 254 255 257 259 262 265 266 269 272 275 277 280 283 285 288 290 292 294 296 296 297 300 302 305 307 310 314 317 320 322 323 325 327 327 327
234 234 234 233 233 233 233 233 233 233 233 232 232 232 232 232 233 233 233 233 232 232 233 234 235 236 237 238 238 238 239 240 241 243 244 244 245 245 245 244 244 245 247 247 247 247 248 248 248 249 249 251 252 253 254 256 258 261 263 265 268 270 273 276 278 282 284 286 288 289 290 292 295 297 299 300 301 304 305 308 312 315 317 319 321 323 323 323
234 234 234 233 233 233 233 233 233 233 233 232 232 232 232 232 232 233 233 233 232 233 234 234 235 236 236 237 237 237 238 239 240 242 243 244 245 245 245 245 244 245 246 247 246 247 249 249 247 248 249 250 251 252 254 256 257 259 261 263 267 269 272 275 278 280 284 286 286 287 289 290 292 296 299 300 299 300 301 303 306 309 311 314 316 318 320 320
234 234 234 234 233 233 232 233 233 233 233 232 232 232 232 232 233 233 234 234 233 234 235 235 235 235 236 236 237 237 238 238 239 241 242 242 244 244 245 245 244 244 245 246 246 246 248 248 247 248 250 249 250 252 253 256 257 257 259 262 264 267 270 274 276 279 282 284 285 286 288 288 290 293 296 298 298 298 299 300 303 306 307 309 312 314 317 318
234 234 234 234 233 233 232 232 232 233 233 232 232 232 232 233 233 233 234 234 233 233 234 234 234 235 235 236 235 235 236 237 237 239 240 241 242 243 244 244 243 243 244 245 245 246 247 249 247 247 249 250 250 252 253 254 256 257 259 260 262 265 267 270 274 277 279 282 283 284 285 286 289 292 293 295 296 297 298 299 301 303 305 307 309 311 313 315
235 235 234 234 233 233 232 232 232 232 232 232 231 231 231 232 233 232 232 232 232 232 233 233 232 233 234 235 235 235 236 236 237 238 239 240 241 242 243 244 243 244 244 244 245 245 246 248 247 247 249 251 251 251 252 253 255 257 258 260 261 263 265 267 271 274 276 279 281 282 283 284 287 289 290 292 294 295 297 299 300 301 303 305 307 309 311 313
235 235 235 234 233 233 233 232 232 232 232 231 231 231 231 231 232 232 232 231 231 231 233 233 233 233 234 234 235 235 235 236 236 237 239 239 241 242 243 244 244 244 244 244 245 245 245 247 247 247 249 251 250 250 252 254 255 257 258 259 260 261 264 266 268 271 275 277 279 281 283 284 285 287 289 292 293 295 297 298 300 301 301 303 306 308 309 311
235 235 236 235 233 233 233 232 232 231 231 231 231 231 231 231 232 232 232 231 231 231 232 233 233 233 234 234 235 235 235 235 236 237 239 240 241 242 243 243 244 244 244 244 244 244 245 246 248 248 248 250 251 252 254 255 255 256 258 259 259 260 262 265 268 271 273 275 277 280 283 283 283 285 288 291 292 293 296 297 299 301 302 304 305 307 308 309
234 235 236 235 233 233 233 232 232 231 231 231 231 231 231 231 232 232 232 231 231 230 231 232 233 233 233 233 233 234 234 234 235 236 238 238 239 240 241 242 244 245 245 245 245 245 245 247 249 248 247 249 252 252 254 255 256 257 257 258 259 260 261 264 268 270 271 274 276 279 281 281 283 285 287 288 289 291 293 295 298 300 301 303 305 306 306 306
233 234 235 236 234 233 233 232 232 231 231 231 231 230 231 231 231 232 232 232 232 231 231 232 232 232 232 232 233 233 233 233 234 235 237 238 238 239 240 242 244 245 245 246 245 245 245 246 248 248 247 248 251 253 254 255 255 256 256 258 260 262 263 264 266 268 270 273 275 277 278 279 281 284 285 286 288 289 291 294 296 298 300 301 303 304 304 305
232 233 235 236 235 233 233 232 232 231 231 231 230 230 230 231 231 231 232 232 231 231 232 232 232 232 232 233 233 234 233 233 234 234 235 237 237 238 239 241 243 244 244 245 246 246 246 246 247 248 249 249 250 252 253 254 254 256 258 260 260 263 264 265 265 267 269 271 273 276 278 280 281 282 283 285 287 288 290 292 294 296 297 299 301 301 301 303
231 232 234 235 235 234 233 232 232 231 231 230 229 229 229 230 231 231 232 232 232 231 231 231 232 232 232 233 233 233 232 232 233 234 234 236 237 238 239 241 243 244 245 247 248 247 247 246 246 248 249 249 250 252 253 254 255 257 259 260 261 262 264 265 266 268 269 270 271 274 277 280 282 282 283 285 287 288 289 291 293 294 295 297 298 298 299 301
229 231 233 235 235 234 233 232 232 231 231 230 229 229 229 230 230 231 231 232 232 231 231 231 231 231 232 232 233 233 232 232 234 234 234 237 237 238 240 241 242 244 244 246 247 246 247 247 247 248 249 249 250 251 252 254 256 258 259 260 261 262 263 265 266 268 269 270 271 272 274 277 280 281 282 284 287 288 289 290 292 292 294 295 295 296 297 299
228 229 231 233 235 235 233 232 232 231 230 230 229 229 229 229 229 230 230 231 231 231 230 231 231 231 231 231 232 233 232 232 234 234 234 236 236 236 238 240 242 243 244 245 246 246 248 249 248 248 249 249 250 252 253 255 257 258 259 260 261 262 264 265 266 267 269 270 271 271 272 275 277 279 281 283 286 289 290 291 291 292 293 294 294 295 295 297
227 227 230 232 234 235 234 232 232 231 229 229 229 228 228 228 228 229 230 230 230 230 229 229 230 230 230 231 232 232 232 231 233 233 233 235 236 236 239 241 241 242 244 244 245 246 248 249 248 248 249 250 251 252 254 255 257 258 258 259 260 262 264 265 266 267 268 269 270 270 271 273 275 278 281 284 286 288 290 290 290 290 292 292 293 294 294 295
225 226 228 230 232 234 233 232 232 231 230 229 229 229 228 228 228 228 229 229 229 229 229 228 229 229 229 230 231 231 232 232 232 232 232 233 234 235 237 240 240 241 242 243 244 245 246 247 248 248 249 251 251 252 254 254 255 256 258 259 261 263 264 265 266 266 266 267 268 269 270 271 274 277 281 284 285 287 288 289 289 290 290 291 291 292 293 294
224 224 226 229 231 233 233 232 232 231 230 229 229 229 229 228 228 228 228 229 229 229 229 228 229 229 229 229 230 230 231 231 232 232 233 233 233 233 234 237 239 240 242 242 244 245 245 245 247 248 249 250 251 252 253 255 254 255 257 259 260 262 264 264 265 265 266 266 268 269 270 271 273 277 280 283 284 286 288 288 288 289 289 290 291 292 294 295
223 223 224 227 229 232 233 233 232 231 230 229 229 229 229 228 227 227 227 228 228 228 228 228 227 228 228 229 230 230 231 231 232 232 233 233 233 233 234 236 238 240 241 241 242 244 244 245 247 248 249 250 251 251 253 255 255 255 256 257 258 260 262 263 264 265 266 266 267 269 270 271 274 277 279 281 283 285 287 288 287 287 288 289 290 292 294 296